#timestamp,LO_Frequency,Hit,StdDev 
1459105215.3,286047006.6,N
1459105235.2,286047007.2,N
1459105255.9,286047005.8,N
1459105275.7,286047005.7,N
1459105295.5,286047002.1,N
1459105315.4,286047002.4,N
1459105335.2,286047002.1,N
1459105355.0,286047001.4,N
1459105355.9,286047001.4,N
1459105375.8,286047001.4,N
1459105395.6,286046998.5,N
1459105415.4,286046998.9,N
1459105435.3,286046998.5,N
1459105455.1,286047000.8,N
1459105475.8,286047002.8,N
1459105495.7,286047000.7,N
1459105515.5,286046998.2,N
1459105535.3,286046997.2,N
1459105555.2,286046999.4,N
1459105575.9,286047001.0,N
1459105595.7,286047002.5,N
1459105615.6,286047001.9,N
1459105635.4,286047004.4,N
1459105655.2,286047000.2,N
1459105675.0,286047001.9,N
1459105675.9,286047001.9,N
1459105695.8,286047000.4,N
1459105715.6,286047001.2,N
1459105735.4,286046998.2,N
1459105755.3,286046999.3,N
1459105775.1,286046994.9,N
1459105795.8,286046993.6,N
1459105815.7,286046995.9,N
1459105835.5,286046995.5,N
1459105855.3,286046998.9,N
1459105875.2,286046999.3,N
1459105895.9,286046997.1,N
1459105915.7,286046997.8,N
1459105935.6,286046999.1,N
1459105955.4,286046996.8,N
1459105975.2,286046996.9,N
1459105995.0,286046993.7,N
1459105996.0,286046993.7,N
1459106015.8,286046996.3,N
1459106035.6,286046995.4,N
1459106055.4,286046995.7,N
1459106075.3,286046994.4,N
1459106095.1,286046993.1,N
1459106115.8,286046992.6,N
1459106135.7,286046990.3,Y
1459106155.5,286046997.9,P
1459106175.3,286046996.8,P
1459106195.2,286046995.4,P
1459106215.9,286046996.0,Y
1459106235.7,286046996.6,P
1459106255.6,286046999.0,P
1459106275.4,286046999.2,N
1459106295.2,286046996.8,N
1459106315.1,286046996.2,Y
1459106316.0,286046996.2,P
1459106335.8,286046999.6,N
1459106355.6,286046998.9,N
1459106375.5,286046999.1,N
1459106395.3,286046997.2,N
1459106415.1,286047001.0,N
1459106435.9,286046999.1,N
1459106455.7,286046999.5,N
1459106475.5,286046996.7,N
1459106495.4,286047001.1,N
1459106515.2,286046996.7,N
1459106535.0,286046993.4,Y
1459106535.9,286046993.4,P
1459106555.8,286046998.0,N
1459106575.6,286046998.4,N
1459106595.4,286046998.2,N
1459106615.3,286046998.2,N
1459106635.1,286047000.0,N
1459106636.0,286047000.0,N
1459106655.8,286047002.5,N
1459106675.7,286047001.4,N
1459106695.5,286047001.0,N
1459106715.3,286046996.5,N
1459106735.1,286046996.8,N
1459106755.9,286046999.2,N
1459106775.7,286046999.5,N
1459106795.5,286047004.1,N
1459106815.4,286047002.2,N
1459106835.2,286046998.1,N
1459106855.0,286047001.0,N
1459106855.9,286047001.0,N
1459106875.8,286046998.3,N
1459106895.6,286046999.6,N
1459106915.4,286046998.7,N
1459106935.3,286046999.2,N
1459106955.1,286046998.7,N
1459106956.0,286046998.7,N
1459106975.8,286047000.8,N
1459106995.6,286047002.8,N
1459107015.5,286046998.7,N
1459107035.3,286046994.9,N
1459107055.1,286046997.6,N
1459107075.9,286046999.6,N
1459107095.7,286046999.6,N
1459107115.5,286046998.4,N
1459107135.4,286047001.4,N
1459107155.2,286046998.4,N
1459107175.0,286046999.0,N
1459107175.9,286046999.0,N
1459107195.8,286046998.3,N
1459107215.6,286046998.9,N
1459107235.4,286046999.3,N
1459107255.3,286047000.8,N
1459107275.1,286046998.3,N
1459107276.0,286046998.3,N
1459107295.8,286047000.6,N
1459107315.7,286046998.1,N
1459107335.5,286046996.5,N
1459107355.3,286047000.8,N
1459107375.1,286046997.5,N
1459107395.9,286046994.7,Y
1459107415.7,286046997.3,P
1459107435.5,286046995.1,P
1459107455.4,286046998.0,N
1459107475.2,286046993.9,Y
1459107495.0,286046995.2,P
1459107496.0,286046995.2,P
1459107515.8,286046996.0,P
1459107535.6,286046994.6,Y
1459107555.5,286046995.5,P
1459107575.3,286046994.5,P
1459107595.1,286046992.8,P
1459107615.9,286046990.2,Y
1459107635.7,286046997.9,P
1459107655.5,286046999.3,N
1459107675.3,286047000.6,N
1459107695.2,286046999.9,N
1459107715.0,286047000.9,N
1459107715.9,286047000.9,N
1459107735.7,286047000.9,N
1459107755.6,286047002.6,N
1459107775.4,286047000.3,N
1459107795.2,286047000.5,N
1459107815.1,286046999.8,N
1459107816.0,286046999.8,N
1459107835.8,286047001.4,N
1459107855.6,286047003.9,N
1459107875.5,286047004.1,N
1459107895.3,286047005.7,N
1459107915.1,286047001.7,N
1459107935.9,286047000.4,N
1459107955.7,286047005.5,N
1459107975.5,286047003.1,N
1459107995.3,286047006.5,N
1459108015.2,286047009.7,Y
1459108035.0,286047011.8,P
1459108035.9,286047011.8,N
1459108055.8,286047013.8,N
1459108075.6,286047012.7,N
1459108095.4,286047020.3,Y
1459108115.3,286047008.3,P
1459108135.1,286047008.0,P
1459108136.0,286047008.0,P
1459108155.8,286047010.8,Y
1459108175.7,286047004.3,P
1459108195.5,286047001.5,N
1459108215.3,286047002.0,N
1459108235.2,286046999.9,N
1459108255.9,286047001.0,N
1459108275.7,286046999.0,N
1459108295.5,286046999.3,N
1459108315.4,286046998.7,N
1459108335.2,286047000.3,N
1459108355.0,286046998.8,N
1459108355.9,286046998.8,N
1459108375.8,286047001.0,N
1459108395.6,286047000.2,N
1459108415.4,286046998.3,N
1459108435.3,286046999.1,N
1459108455.1,286046999.6,N
1459108456.0,286046999.6,N
1459108475.8,286047000.7,N
1459108495.7,286047000.8,N
1459108515.5,286046999.2,N
1459108535.3,286046998.2,N
1459108555.2,286046998.6,N
1459108575.9,286046999.4,N
1459108595.7,286046997.7,N
1459108615.5,286046994.3,N
1459108635.4,286046992.2,Y
1459108655.2,286046993.1,P
1459108675.1,286046992.9,N
1459108676.0,286046992.9,N
1459108695.8,286046992.0,N
1459108715.6,286046991.4,N
1459108735.5,286046989.7,Y
1459108755.3,286046992.1,P
1459108775.1,286046991.8,P
1459108795.9,286046993.6,P
